DW5624 Weather Reports


time (UTC)temp
F
wind
direction
speed
knots
gust
knots
rain 1hr
in
rain 24hr
in
rain mn
in
humidity
%
barometer
mb
20260510054904 77 113 1.7 5.2 0.00 0.00 0.00 91 1009.5
20260510054405 77 106 2.6 5.2 0.00 0.00 0.00 91 1009.5
20260510052905 77 136 2.6 6.1 0.00 0.00 0.00 90 1009.7
20260510052404 77 94 3.5 6.1 0.00 0.00 0.00 90 1009.7
20260510051904 77 72 4.3 7.8 0.00 0.00 0.00 90 1009.8
20260510051405 77 77 2.6 7.0 0.00 0.00 0.00 90 1009.8
20260510050404 77 95 2.6 7.8 0.00 0.00 0.00 90 1009.9
20260510045404 78 56 4.3 6.1 0.00 0.00 0.00 90 1009.9
20260510043904 78 65 4.3 7.8 0.00 0.00 0.00 90 1010.2
20260510043404 78 65 5.2 10.4 0.00 0.00 0.00 90 1010.2
20260510041404 78 55 4.3 7.8 0.00 0.00 0.00 89 1010.2
20260510040904 78 63 4.3 7.0 0.00 0.00 0.00 89 1010.1
20260510035904 78 98 2.6 5.2 0.00 0.00 0.00 88 1010.0
20260510035405 78 64 4.3 8.7 0.00 0.00 0.00 88 1010.0
20260510032404 79 104 4.3 8.7 0.00 0.00 0.00 86 1010.0
20260510030904 80 62 6.1 8.7 0.00 0.00 0.00 85 1010.1
20260510025905 80 40 5.2 10.4 0.00 0.00 0.00 84 1010.0
20260510025404 80 56 5.2 11.3 0.00 0.00 0.00 84 1009.9
20260510022904 81 50 4.3 7.8 0.00 0.00 0.00 78 1009.1
20260510022404 81 72 4.3 10.4 0.00 0.00 0.00 77 1009.0
20260510020904 81 63 4.3 7.8 0.00 0.00 0.00 76 1008.3
20260510020404 81 74 2.6 5.2 0.00 0.00 0.00 76 1008.3
20260510015905 82 88 3.5 8.7 0.00 0.00 0.00 75 1008.2
20260510013905 82 99 3.5 8.7 0.00 0.00 0.00 73 1007.4
20260510013404 82 107 4.3 7.8 0.00 0.00 0.00 73 1007.4
20260510011904 83 126 4.3 8.7 0.00 0.00 0.00 70 1007.3
20260510011404 83 99 2.6 7.0 0.00 0.00 0.00 69 1007.2
20260510010404 84 132 4.3 10.4 0.00 0.00 0.00 66 1006.5
20260510005904 84 116 5.2 7.8 0.00 0.00 0.00 65 1006.5
20260510004904 84 119 4.3 7.0 0.00 0.00 0.00 62 1007.0
20260510004404 85 144 2.6 7.0 0.00 0.00 0.00 61 1007.0
20260510003405 85 119 4.3 10.4 0.00 0.00 0.00 61 1006.7
20260510001404 86 167 2.6 7.0 0.00 0.00 0.00 64 1006.7
20260509235904 87 117 4.3 7.8 0.00 0.00 0.00 64 1006.2
20260509234405 88 166 2.6 4.3 0.00 0.00 0.00 62 1006.2
20260509233904 89 165 1.7 5.2 0.00 0.00 0.00 61 1006.3
20260509232904 90 157 2.6 5.2 0.00 0.00 0.00 61 1006.1
20260509232404 90 171 2.6 5.2 0.00 0.00 0.00 59 1006.1
20260509231904 91 182 2.6 5.2 0.00 0.00 0.00 59 1006.1
20260509225904 92 128 2.6 6.1 0.00 0.00 0.00 60 1006.2
20260509225404 92 117 1.7 6.1 0.00 0.00 0.00 60 1006.1
20260509224904 92 119 2.6 5.2 0.00 0.00 0.00 61 1006.0
20260509224404 92 116 2.6 6.1 0.00 0.00 0.00 60 1006.0
20260509223905 92 114 1.7 7.0 0.00 0.00 0.00 61 1005.9
20260509223404 92 172 3.5 7.0 0.00 0.00 0.00 59 1005.9
20260509221904 92 145 2.6 5.2 0.00 0.00 0.00 58 1005.9
20260509221404 92 201 0.0 2.6 0.00 0.00 0.00 58 1005.9
20260509220405 93 172 2.6 5.2 0.00 0.00 0.00 57 1006.0
20260509215904 93 260 0.9 2.6 0.00 0.00 0.00 56 1005.9
20260509215404 93 41 2.6 6.1 0.00 0.00 0.00 57 1005.9
20260509214904 93 110 2.6 7.0 0.00 0.00 0.00 58 1005.9
20260509213904 95 119 1.7 4.3 0.00 0.00 0.00 55 1005.9
20260509213404 95 119 1.7 5.2 0.00 0.00 0.00 53 1005.9
20260509212904 95 158 1.7 4.3 0.00 0.00 0.00 54 1005.9
20260509212404 95 139 1.7 4.3 0.00 0.00 0.00 54 1005.8
20260509211904 95 203 0.9 1.7 0.00 0.00 0.00 55 1005.8
20260509211404 95 300 1.7 4.3 0.00 0.00 0.00 52 1005.8
20260509210404 95 182 0.9 2.6 0.00 0.00 0.00 57 1005.9
20260509205404 95 244 1.7 2.6 0.00 0.00 0.00 57 1006.2
20260509204905 94 117 0.9 4.3 0.00 0.00 0.00 60 1006.1
20260509202904 93 251 0.9 4.3 0.00 0.00 0.00 56 1006.4
20260509202404 94 241 0.9 4.3 0.00 0.00 0.00 56 1006.4
20260509201404 93 146 0.9 2.6 0.00 0.00 0.00 59 1006.5
20260509200904 93 64 0.9 2.6 0.00 0.00 0.00 64 1006.5
20260509195904 92 201 0.9 2.6 0.00 0.00 0.00 62 1006.7
20260509194404 91 258 0.0 2.6 0.00 0.00 0.00 63 1006.7
20260509193403 91 296 1.7 5.2 0.00 0.00 0.00 62 1006.8
20260509185904 90 206 0.9 2.6 0.00 0.00 0.00 70 1007.0
20260509184904 90 203 0.9 4.3 0.00 0.00 0.00 69 1007.2
20260509182904 89 96 1.7 6.1 0.00 0.00 0.00 76 1007.5
20260509181404 88 160 1.7 5.2 0.00 0.00 0.00 75 1007.8
20260509180904 87 165 2.6 6.1 0.00 0.00 0.00 78 1007.9
20260509175404 86 179 0.9 4.3 0.00 0.00 0.00 80 1008.4
20260509174904 85 187 1.7 5.2 0.00 0.00 0.00 79 1008.4
20260509174404 85 185 1.7 5.2 0.00 0.00 0.00 83 1008.6
20260509173404 83 229 0.0 2.6 0.00 0.00 0.00 80 1008.7
20260509172403 83 203 0.9 2.6 0.00 0.00 0.00 81 1008.7
20260509171904 83 204 0.9 2.6 0.00 0.00 0.00 81 1008.8
20260509171404 83 192 0.9 5.2 0.00 0.00 0.00 82 1008.7
20260509170404 83 172 0.9 2.6 0.00 0.00 0.00 82 1008.9
20260509164904 83 178 2.6 6.1 0.00 0.00 0.00 85 1008.9
20260509163904 83 236 0.9 4.3 0.00 0.00 0.00 84 1008.9
20260509163404 83 223 0.0 0.0 0.00 0.00 0.00 84 1008.8
20260509162904 83 254 0.0 2.6 0.00 0.00 0.00 84 1008.7
20260509161903 83 211 0.9 1.7 0.00 0.00 0.00 84 1008.6
20260509161404 83 173 0.9 4.3 0.00 0.00 0.00 84 1008.7
20260509155903 83 304 0.0 1.7 0.00 0.00 0.00 87 1008.6
20260509155405 82 194 0.9 2.6 0.00 0.00 0.00 88 1008.6
20260509153904 81 296 0.0 0.0 0.00 0.00 0.00 91 1008.8
20260509153404 81 39 0.0 2.6 0.00 0.00 0.00 92 1008.4
20260509152404 80 108 1.7 4.3 0.00 0.00 0.00 93 1008.2
20260509150904 79 111 0.9 2.6 0.00 0.00 0.00 94 1008.3
20260509145903 78 111 1.7 5.2 0.00 0.00 0.00 94 1008.2
20260509145404 78 114 1.7 5.2 0.00 0.00 0.00 94 1008.2
20260509144904 78 74 3.5 6.1 0.00 0.00 0.00 95 1008.4
20260509144404 78 59 1.7 4.3 0.00 0.00 0.00 95 1008.4
20260509142904 78 115 1.7 4.3 0.00 0.00 0.00 95 1008.3
20260509142403 78 114 1.7 4.3 0.00 0.00 0.00 96 1008.3
20260509141904 78 116 2.6 5.2 0.00 0.00 0.00 96 1008.3
20260509141404 78 148 0.9 2.6 0.00 0.00 0.00 96 1008.4
20260509140905 78 127 0.9 2.6 0.00 0.00 0.00 96 1008.2
20260509134405 77 226 0.9 2.6 0.00 0.00 0.00 97 1008.7
20260509133906 77 218 0.0 2.6 0.00 0.00 0.00 97 1008.7
20260509132906 77 184 0.0 0.9 0.00 0.00 0.00 97 1008.6
20260509131905 77 184 0.0 2.6 0.00 0.00 0.00 97 1008.7
20260509130905 77 182 1.7 5.2 0.00 0.00 0.00 97 1008.7
20260509124405 76 45 0.9 4.3 0.00 0.00 0.00 97 1008.7
20260509123406 76 183 0.9 1.7 0.00 0.00 0.00 97 1008.7
20260509121905 76 241 0.0 0.9 0.00 0.00 0.00 97 1008.4
20260509121406 76 65 0.0 0.0 0.00 0.00 0.00 97 1008.3
20260509120905 76 65 0.0 0.0 0.00 0.00 0.00 97 1008.2
20260509115905 76 58 0.0 0.9 0.00 0.00 0.00 97 1008.4
20260509114905 76 268 0.0 0.9 0.00 0.00 0.00 97 1008.4
20260509112906 76 203 0.0 0.0 0.00 0.00 0.00 97 1008.4
20260509112405 76 203 0.0 0.0 0.00 0.00 0.00 96 1008.3
20260509111906 76 203 0.0 0.0 0.00 0.00 0.00 96 1008.2
20260509110906 76 298 0.0 0.0 0.00 0.00 0.00 96 1008.1
20260509110406 76 80 0.0 0.0 0.00 0.00 0.00 96 1007.9
20260509105906 76 80 0.0 0.0 0.00 0.00 0.00 96 1007.7
20260509103905 76 80 0.0 0.0 0.00 0.00 0.00 96 1007.9
20260509102905 76 80 0.0 0.0 0.00 0.00 0.00 96 1008.0
20260509100905 76 80 0.0 0.0 0.00 0.00 0.00 96 1007.9
20260509095405 76 80 0.0 0.0 0.00 0.00 0.00 96 1007.7
20260509094906 76 80 0.0 0.0 0.00 0.00 0.00 96 1007.6
20260509092906 76 80 0.0 0.0 0.00 0.00 0.00 96 1007.5
20260509085405 75 76 0.0 0.9 0.00 0.00 0.00 96 1007.3
20260509084905 75 106 0.0 0.0 0.00 0.00 0.00 96 1007.3
20260509084405 75 109 0.0 0.9 0.00 0.00 0.00 95 1007.4
20260509083905 75 113 0.0 0.0 0.00 0.00 0.00 95 1007.6
20260509081905 74 113 0.0 0.0 0.00 0.00 0.00 95 1007.4
20260509081406 74 113 0.0 0.0 0.00 0.00 0.00 95 1007.5
20260509080905 74 113 0.0 0.0 0.00 0.00 0.00 95 1007.4
20260509073905 75 113 0.0 0.0 0.00 0.00 0.00 95 1008.0
20260509073405 75 113 0.0 0.0 0.00 0.00 0.00 95 1008.0
20260509072905 75 113 0.0 0.0 0.00 0.00 0.00 95 1008.2
20260509064905 76 113 0.0 0.0 0.00 0.00 0.00 95 1007.9
20260509063905 76 113 0.0 1.7 0.00 0.00 0.00 95 1007.9
20260509061906 76 114 0.9 1.7 0.00 0.00 0.00 94 1008.3
20260509060405 76 114 0.9 2.6 0.00 0.00 0.00 95 1008.2
20260509055906 76 58 0.9 4.3 0.00 0.00 0.00 95 1008.2